timestamp,wind_dir_avg,wind_spd_max_dir,wind_spd_avg,wind_spd_gust,battery_voltage,lat,long
2019-11-09 00:04:01+00:00,242.0,240.0,7.73,8.6,12.49,47.59359,-54.27349
2019-11-09 00:14:01+00:00,232.0,230.0,6.33,7.41,12.49,47.59359,-54.27349
2019-11-09 00:24:01+00:00,243.0,238.0,6.47,7.14,12.49,47.59359,-54.27349
2019-11-09 00:34:01+00:00,250.0,248.0,6.62,7.29,12.49,47.59359,-54.27349
2019-11-09 00:44:01+00:00,241.0,237.0,5.58,6.81,12.49,47.59359,-54.27349
2019-11-09 00:54:01+00:00,229.0,227.0,3.88,4.56,12.49,47.59359,-54.27349
2019-11-09 01:04:01+00:00,240.0,238.0,4.19,4.87,12.49,47.59359,-54.27349
2019-11-09 01:14:01+00:00,251.0,251.0,4.21,4.84,12.49,47.59359,-54.27349
2019-11-09 01:24:01+00:00,245.0,249.0,3.89,4.58,12.49,47.59359,-54.27349
2019-11-09 01:34:01+00:00,310.0,304.0,4.05,4.83,12.49,47.59359,-54.27349
2019-11-09 01:44:01+00:00,289.0,293.0,4.28,4.67,12.49,47.59359,-54.27349
2019-11-09 01:54:01+00:00,296.0,301.0,5.33,5.93,12.49,47.59359,-54.27349
2019-11-09 02:04:01+00:00,293.0,295.0,3.87,4.26,12.49,47.59359,-54.27349
2019-11-09 02:14:01+00:00,279.0,279.0,3.53,3.91,12.49,47.59359,-54.27349
2019-11-09 02:24:01+00:00,268.0,266.0,2.86,3.07,12.49,47.59359,-54.27349
2019-11-09 02:34:01+00:00,249.0,251.0,2.84,3.15,12.49,47.59359,-54.27349
2019-11-09 02:44:01+00:00,251.0,251.0,3.73,4.21,12.49,47.59359,-54.27349
2019-11-09 02:54:01+00:00,247.0,252.0,4.95,5.5,12.49,47.59359,-54.27349
2019-11-09 03:04:01+00:00,247.0,246.0,5.51,6.28,12.49,47.59359,-54.27349
2019-11-09 03:14:01+00:00,241.0,247.0,5.51,6.44,12.41,47.59359,-54.27349
2019-11-09 03:24:01+00:00,236.0,232.0,4.86,5.68,12.41,47.59359,-54.27349
2019-11-09 03:34:01+00:00,245.0,242.0,5.78,6.75,12.41,47.59359,-54.27349
2019-11-09 03:44:01+00:00,255.0,254.0,7.0,8.1,12.41,47.59359,-54.27349
2019-11-09 03:54:01+00:00,264.0,265.0,7.38,7.85,12.41,47.59359,-54.27349
2019-11-09 04:04:01+00:00,266.0,266.0,7.19,7.82,12.41,47.59359,-54.27349
2019-11-09 04:14:01+00:00,268.0,270.0,6.86,7.36,12.41,47.59359,-54.27349
2019-11-09 04:24:01+00:00,265.0,261.0,7.38,8.0,12.41,47.59359,-54.27349
2019-11-09 04:34:01+00:00,261.0,265.0,7.87,10.13,12.41,47.59359,-54.27349
2019-11-09 04:44:01+00:00,265.0,264.0,8.08,8.81,12.41,47.59359,-54.27349
2019-11-09 04:54:01+00:00,265.0,267.0,8.5,9.51,12.41,47.59359,-54.27349
2019-11-09 05:04:01+00:00,251.0,247.0,7.76,8.51,12.41,47.59359,-54.27349
2019-11-09 05:14:01+00:00,260.0,261.0,8.84,9.63,12.41,47.59359,-54.27349
2019-11-09 05:24:01+00:00,272.0,277.0,7.69,9.23,12.41,47.59359,-54.27349
2019-11-09 05:34:01+00:00,270.0,268.0,10.01,11.15,12.41,47.59359,-54.27349
2019-11-09 05:44:01+00:00,272.0,266.0,8.38,9.35,12.41,47.59359,-54.27349
2019-11-09 05:54:01+00:00,327.0,322.0,9.34,10.35,12.41,47.59359,-54.27349
2019-11-09 06:04:01+00:00,325.0,328.0,9.34,10.96,12.41,47.59359,-54.27349
2019-11-09 06:14:01+00:00,324.0,323.0,7.21,8.18,12.41,47.59359,-54.27349
2019-11-09 06:24:01+00:00,331.0,325.0,9.32,11.3,12.41,47.59359,-54.27349
2019-11-09 06:34:01+00:00,329.0,328.0,6.82,8.34,12.41,47.59359,-54.27349
2019-11-09 06:44:01+00:00,324.0,325.0,5.03,5.98,12.41,47.59359,-54.27349
2019-11-09 06:54:01+00:00,335.0,341.0,5.8,7.87,12.41,47.59359,-54.27349
2019-11-09 07:04:01+00:00,319.0,318.0,4.55,5.54,12.41,47.59359,-54.27349
2019-11-09 07:14:01+00:00,303.0,288.0,4.64,6.82,12.41,47.59359,-54.27349
2019-11-09 07:24:01+00:00,323.0,325.0,8.04,10.32,12.41,47.59359,-54.27349
2019-11-09 07:34:01+00:00,335.0,336.0,8.2,10.94,12.41,47.59359,-54.27349
2019-11-09 07:44:01+00:00,316.0,320.0,8.5,10.72,12.41,47.59359,-54.27349
2019-11-09 07:54:01+00:00,323.0,324.0,8.68,10.48,12.41,47.59359,-54.27349
2019-11-09 08:04:01+00:00,316.0,328.0,9.81,12.93,12.41,47.59359,-54.27349
2019-11-09 08:14:01+00:00,327.0,329.0,7.93,9.94,12.41,47.59359,-54.27349
2019-11-09 08:24:01+00:00,325.0,315.0,8.47,10.72,12.41,47.59359,-54.27349
2019-11-09 08:34:01+00:00,319.0,324.0,8.92,11.57,12.41,47.59359,-54.27349
2019-11-09 08:44:01+00:00,317.0,322.0,9.84,13.1,12.41,47.59359,-54.27349
2019-11-09 08:54:01+00:00,314.0,319.0,9.58,10.79,12.41,47.59359,-54.27349
2019-11-09 09:04:01+00:00,314.0,317.0,9.19,10.48,12.41,47.59359,-54.27349
2019-11-09 09:14:01+00:00,315.0,311.0,8.81,10.71,12.33,47.59359,-54.27349
2019-11-09 09:24:01+00:00,313.0,308.0,9.17,10.9,12.33,47.59359,-54.27349
2019-11-09 09:34:01+00:00,320.0,325.0,11.2,12.78,12.33,47.59359,-54.27349
2019-11-09 09:44:01+00:00,315.0,317.0,11.56,13.4,12.33,47.59359,-54.27349
2019-11-09 09:54:01+00:00,312.0,310.0,10.41,12.32,12.33,47.59359,-54.27349
2019-11-09 10:04:01+00:00,308.0,315.0,10.8,12.38,12.33,47.59359,-54.27349
2019-11-09 10:14:01+00:00,310.0,310.0,10.89,12.46,12.33,47.59359,-54.27349
2019-11-09 10:24:01+00:00,309.0,313.0,11.0,12.1,12.33,47.59359,-54.27349
2019-11-09 10:34:01+00:00,301.0,304.0,8.91,10.58,12.33,47.59359,-54.27349
2019-11-09 10:44:01+00:00,304.0,303.0,9.78,12.69,12.33,47.59359,-54.27349
2019-11-09 10:54:01+00:00,303.0,306.0,10.4,12.17,12.33,47.59359,-54.27349
2019-11-09 11:04:01+00:00,303.0,305.0,11.43,14.25,12.33,47.59359,-54.27349
2019-11-09 11:14:01+00:00,300.0,295.0,12.31,14.48,12.41,47.59359,-54.27349
2019-11-09 11:24:01+00:00,293.0,293.0,12.53,14.69,12.41,47.59359,-54.27349
2019-11-09 11:34:01+00:00,289.0,296.0,13.2,15.98,12.41,47.59359,-54.27349
2019-11-09 11:44:01+00:00,292.0,286.0,10.42,12.29,12.41,47.59359,-54.27349
2019-11-09 11:54:01+00:00,300.0,306.0,10.95,12.5,12.41,47.59359,-54.27349
2019-11-09 12:04:01+00:00,308.0,311.0,12.99,14.81,12.41,47.59359,-54.27349
2019-11-09 12:14:01+00:00,299.0,301.0,11.16,13.42,13.76,47.59359,-54.27349
2019-11-09 12:24:01+00:00,298.0,300.0,9.59,11.41,13.76,47.59359,-54.27349
2019-11-09 12:34:01+00:00,299.0,301.0,10.25,12.06,13.76,47.59359,-54.27349
2019-11-09 12:44:01+00:00,286.0,284.0,13.83,16.54,13.76,47.59359,-54.27349
2019-11-09 12:54:01+00:00,292.0,291.0,11.88,14.37,13.76,47.59359,-54.27349
2019-11-09 13:04:01+00:00,294.0,296.0,11.65,14.58,13.76,47.59359,-54.27349
2019-11-09 13:14:01+00:00,299.0,288.0,11.88,13.26,13.68,47.59359,-54.27349
2019-11-09 13:24:01+00:00,302.0,299.0,12.45,14.47,13.68,47.59359,-54.27349
2019-11-09 13:34:01+00:00,298.0,301.0,12.05,14.06,13.68,47.59359,-54.27349
2019-11-09 13:44:01+00:00,292.0,286.0,11.11,12.73,13.68,47.59359,-54.27349
2019-11-09 13:54:01+00:00,289.0,289.0,12.63,14.74,13.68,47.59359,-54.27349
2019-11-09 14:04:01+00:00,277.0,273.0,11.83,13.39,13.68,47.59359,-54.27349
2019-11-09 14:14:01+00:00,287.0,291.0,12.64,14.77,13.68,47.59359,-54.27349
2019-11-09 14:24:01+00:00,268.0,266.0,15.04,17.93,13.68,47.59359,-54.27349
2019-11-09 14:34:01+00:00,280.0,278.0,14.52,17.56,13.68,47.59359,-54.27349
2019-11-09 14:44:01+00:00,287.0,277.0,17.48,20.7,13.68,47.59359,-54.27349
2019-11-09 14:54:01+00:00,274.0,273.0,19.48,21.57,13.68,47.59359,-54.27349
2019-11-09 15:04:01+00:00,281.0,281.0,17.05,20.23,13.68,47.59359,-54.27349
2019-11-09 15:14:01+00:00,280.0,279.0,17.74,21.63,13.6,47.59359,-54.27349
2019-11-09 15:24:01+00:00,283.0,280.0,19.83,23.26,13.6,47.59359,-54.27349
2019-11-09 15:34:01+00:00,272.0,276.0,20.08,23.15,13.6,47.59359,-54.27349
2019-11-09 15:44:01+00:00,288.0,286.0,18.06,20.7,13.6,47.59359,-54.27349
2019-11-09 15:54:01+00:00,285.0,294.0,15.61,19.16,13.6,47.59359,-54.27349
2019-11-09 16:04:01+00:00,274.0,271.0,18.06,26.43,13.6,47.59359,-54.27349
2019-11-09 16:14:01+00:00,283.0,278.0,19.46,22.91,13.92,47.59359,-54.27349
2019-11-09 16:24:01+00:00,277.0,270.0,15.65,18.5,13.92,47.59359,-54.27349
2019-11-09 16:34:01+00:00,282.0,285.0,16.42,18.71,13.92,47.59359,-54.27349
2019-11-09 16:44:01+00:00,296.0,301.0,16.36,19.13,13.92,47.59359,-54.27349
2019-11-09 16:54:01+00:00,292.0,292.0,14.97,17.6,13.92,47.59359,-54.27349
2019-11-09 17:04:01+00:00,292.0,291.0,17.66,21.12,13.92,47.59359,-54.27349
2019-11-09 17:14:01+00:00,282.0,282.0,15.82,18.05,13.68,47.59359,-54.27349
2019-11-09 17:24:01+00:00,294.0,300.0,13.01,15.28,13.68,47.59359,-54.27349
2019-11-09 17:34:01+00:00,294.0,287.0,15.5,19.3,13.68,47.59359,-54.27349
2019-11-09 17:44:01+00:00,296.0,300.0,14.6,17.3,13.68,47.59359,-54.27349
2019-11-09 17:54:01+00:00,290.0,284.0,14.05,17.73,13.68,47.59359,-54.27349
2019-11-09 18:04:01+00:00,288.0,299.0,15.51,21.06,13.68,47.59359,-54.27349
2019-11-09 18:14:01+00:00,287.0,285.0,14.38,17.03,13.68,47.59359,-54.27349
2019-11-09 18:24:01+00:00,292.0,291.0,15.61,19.07,13.68,47.59359,-54.27349
2019-11-09 18:34:01+00:00,287.0,285.0,13.97,15.88,13.68,47.59359,-54.27349
2019-11-09 18:44:01+00:00,288.0,296.0,13.78,15.79,13.68,47.59359,-54.27349
2019-11-09 18:54:01+00:00,309.0,308.0,17.68,20.19,13.68,47.59359,-54.27349
2019-11-09 19:04:01+00:00,296.0,291.0,13.72,16.53,13.68,47.59359,-54.27349
2019-11-09 19:14:01+00:00,299.0,297.0,15.93,19.95,13.92,47.59359,-54.27349
2019-11-09 19:24:01+00:00,304.0,311.0,13.46,16.65,13.92,47.59359,-54.27349
2019-11-09 19:34:01+00:00,299.0,297.0,14.35,16.43,13.92,47.59359,-54.27349
2019-11-09 19:44:01+00:00,292.0,296.0,14.28,16.61,13.92,47.59359,-54.27349
2019-11-09 19:54:01+00:00,305.0,308.0,12.1,14.32,13.92,47.59359,-54.27349
2019-11-09 20:04:01+00:00,295.0,301.0,11.5,14.08,13.92,47.59359,-54.27349
2019-11-09 20:14:01+00:00,300.0,302.0,11.7,13.66,13.13,47.59359,-54.27349
2019-11-09 20:24:01+00:00,297.0,296.0,11.39,13.37,13.13,47.59359,-54.27349
2019-11-09 20:34:01+00:00,307.0,311.0,13.53,15.31,13.13,47.59359,-54.27349
2019-11-09 20:44:01+00:00,303.0,298.0,11.35,13.58,13.13,47.59359,-54.27349
2019-11-09 20:54:01+00:00,298.0,306.0,11.97,13.65,13.13,47.59359,-54.27349
2019-11-09 21:04:01+00:00,300.0,301.0,11.06,13.05,13.13,47.59359,-54.27349
2019-11-09 21:14:01+00:00,302.0,307.0,13.49,15.99,12.73,47.59359,-54.27349
2019-11-09 21:24:01+00:00,303.0,300.0,13.87,18.19,12.73,47.59359,-54.27349
2019-11-09 21:34:01+00:00,305.0,308.0,10.9,12.75,12.73,47.59359,-54.27349
2019-11-09 21:44:01+00:00,293.0,296.0,11.91,13.36,12.73,47.59359,-54.27349
2019-11-09 21:54:01+00:00,302.0,306.0,11.68,14.7,12.73,47.59359,-54.27349
2019-11-09 22:04:01+00:00,307.0,311.0,10.08,11.44,12.73,47.59359,-54.27349
2019-11-09 22:14:01+00:00,297.0,309.0,10.98,12.99,12.65,47.59359,-54.27349
2019-11-09 22:24:01+00:00,298.0,297.0,10.88,11.96,12.65,47.59359,-54.27349
2019-11-09 22:34:01+00:00,295.0,294.0,11.91,13.45,12.65,47.59359,-54.27349
2019-11-09 22:44:01+00:00,305.0,310.0,10.81,12.38,12.65,47.59359,-54.27349
2019-11-09 22:54:01+00:00,302.0,299.0,9.94,11.49,12.65,47.59359,-54.27349
2019-11-09 23:04:01+00:00,294.0,295.0,9.89,11.91,12.65,47.59359,-54.27349
2019-11-09 23:14:01+00:00,307.0,303.0,9.19,11.21,12.65,47.59359,-54.27349
2019-11-09 23:24:01+00:00,302.0,301.0,10.03,12.48,12.65,47.59359,-54.27349
2019-11-09 23:34:01+00:00,300.0,300.0,9.45,11.06,12.65,47.59359,-54.27349
2019-11-09 23:44:01+00:00,300.0,299.0,10.22,11.73,12.65,47.59359,-54.27349
2019-11-09 23:54:01+00:00,293.0,303.0,9.55,11.41,12.65,47.59359,-54.27349
